Flag for U.S.A. Weather past 2 weeks in Key West, Florida, U.S.A.

Now
91 °F

Sunny.


Feels Like: 98 °F
Forecast: 85 / 91 °F
Wind: 9 mph from Southeast

Location: Key West International Airport

Current Time: Aug 22, 2014 at 4:34:27 PM

Latest Report: Aug 22, 2014 at 3:53 PM


Visibility: 10 mi

Pressure: 30.01 "Hg

Humidity: 52%

Dew point: 71 °F

Location of Key WestLocation

Historic Weather in Key West — Graph

°F

Key West temperature yesterday

Maximum temperature yesterday: 90 °F (at 10:53 AM)
Minimum temperature yesterday: 83 °F (at 2:53 AM)
Average temperature yesterday: 86 °F

Past Weeks' High & Low Weather Summary

 TemperatureHumidityPressure
High92 °F (Aug 17, 2:53 PM)82% (Aug 21, 5:53 AM)30.11 "Hg (Aug 21, 5:53 AM)
Low81 °F (Aug 20, 2:00 PM)57% (Aug 10, 3:53 PM)29.95 "Hg (Aug 7, 6:53 PM)
Average87 °F68%30.04 "Hg
* Reported Aug 7 2:53 PM — Aug 22 2:53 PM, Key West, Weather by CustomWeather, © 2014

Note: Actual official high and low records may vary slightly from our data, if they occured in-between our weather recording intervals... More about our weather records

Advertising

Key West weather history for previous 24 hours

 ConditionsComfort  
Time TempWeatherWind HumidityBarometerVisibility
2:53 PM
Aug 22
89 °FPartly sunny.9 mph61%30.02 "Hg10 mi
1:53 PM89 °FPartly sunny.5 mph65%30.04 "Hg10 mi
1:04 PM91 °FThundershowers. Passing clouds.9 mph61%30.06 "Hg10 mi
12:53 PM90 °FThunderstorms. Sunny.8 mph63%30.06 "Hg10 mi
11:53 AM90 °FSunny.8 mph66%30.07 "Hg10 mi
10:53 AM88 °FSunny.7 mph70%30.07 "Hg10 mi
9:53 AM88 °FSunny.8 mph67%30.06 "Hg10 mi
8:53 AM87 °FSunny.9 mph69%30.06 "Hg10 mi
7:53 AM85 °FClear.10 mph75%30.05 "Hg10 mi
6:53 AM84 °FPassing clouds.6 mph77%30.03 "Hg10 mi
5:53 AM84 °FPassing clouds.6 mph77%30.03 "Hg10 mi
4:53 AM85 °FClear.5 mph75%30.03 "Hg10 mi
3:53 AM85 °FClear.6 mph72%30.03 "Hg10 mi
2:53 AM85 °FClear.6 mph72%30.05 "Hg10 mi
1:53 AM85 °FClear.7 mph72%30.06 "Hg10 mi
12:53 AM86 °FClear.5 mph70%30.08 "Hg10 mi
11:53 PM
Aug 21
85 °FClear.6 mph75%30.10 "Hg10 mi
10:53 PM85 °FRain. Partly cloudy.6 mph75%30.11 "Hg9 mi
9:53 PM86 °FPassing clouds.6 mph72%30.09 "Hg10 mi
8:53 PM86 °FPassing clouds.6 mph72%30.07 "Hg10 mi
7:53 PM87 °FSunny.9 mph67%30.04 "Hg10 mi
6:53 PM88 °FPassing clouds.6 mph67%30.03 "Hg10 mi
5:53 PM88 °FSunny.7 mph67%30.04 "Hg10 mi
4:53 PM88 °FThundershowers. Sunny.8 mph67%30.05 "Hg10 mi
Weather by CustomWeather, © 2014

See weather overviewHow to use our weather pages